This is the latest recevied weather packets stored in our database for station/object K5NAN. If no packets are shown the sender has not sent any weather packets the latest 10 day(s).
| Time | Temp. | Humidity | Pressure | Rain* | Wind** | Luminosity | Snow |
|---|---|---|---|---|---|---|---|
| 1777738836 | 20.56° C | 36% | 1020.8 hPa | 0 mm | - | 718 W/m² | - |
| 1777738532 | 20° C | 39% | 1020.9 hPa | 0 mm | - | 706 W/m² | - |
| 1777738230 | 20° C | 39% | 1021 hPa | 0 mm | - | 697 W/m² | - |
| 1777737928 | 20.56° C | 38% | 1020.8 hPa | 0 mm | - | 684 W/m² | - |
| 1777737626 | 20° C | 41% | 1020.8 hPa | 0 mm | - | 673 W/m² | - |
| 1777737324 | 20° C | 40% | 1020.8 hPa | 0 mm | - | 661 W/m² | - |
| 1777737021 | 20° C | 43% | 1020.9 hPa | 0 mm | - | 647 W/m² | - |
| 1777736717 | 19.44° C | 43% | 1020.7 hPa | 0 mm | - | 631 W/m² | - |
| 1777736078 | 19.44° C | 46% | 1020.6 hPa | 0 mm | - | 607 W/m² | - |
| 1777735774 | 18.89° C | 45% | 1020.5 hPa | 0 mm | - | 593 W/m² | - |
| 1777735472 | 18.89° C | 43% | 1020.6 hPa | 0 mm | - | 581 W/m² | - |
| 1777735170 | 19.44° C | 46% | 1020.7 hPa | 0 mm | - | 569 W/m² | - |
| 1777734866 | 18.89° C | 49% | 1020.6 hPa | 0 mm | - | 553 W/m² | - |
| 1777734564 | 18.89° C | 50% | 1020.7 hPa | 0 mm | - | 537 W/m² | - |
| 1777734260 | 18.33° C | 50% | 1020.5 hPa | 0 mm | - | 522 W/m² | - |
| 1777733956 | 17.78° C | 52% | 1020.6 hPa | 0 mm | - | 506 W/m² | - |
| 1777733653 | 17.78° C | 53% | 1020.5 hPa | 0 mm | - | 492 W/m² | - |
| 1777733349 | 17.78° C | 55% | 1020.7 hPa | 0 mm | - | 475 W/m² | - |
| 1777733047 | 17.78° C | 55% | 1020.5 hPa | 0 mm | - | 459 W/m² | - |
| 1777732743 | 17.22° C | 56% | 1020.6 hPa | 0 mm | - | 443 W/m² | - |
| 1777732440 | 16.67° C | 57% | 1020.5 hPa | 0 mm | - | 428 W/m² | - |
| 1777732137 | 16.67° C | 60% | 1020.5 hPa | 0 mm | - | 411 W/m² | - |
| 1777731834 | 16.11° C | 60% | 1020.4 hPa | 0 mm | - | 392 W/m² | - |
| 1777731530 | 16.11° C | 65% | 1020.4 hPa | 0 mm | - | 377 W/m² | - |
| 1777731229 | 15.56° C | 70% | 1020.5 hPa | 0 mm | - | 359 W/m² | - |
* Rain latest hour (hover to see other rain measurements)
** Current wind speed in m/s (hover to see current wind gust speed)